Regional Weather Roundup
Issued by NWS

Home | Current Version | Previous Version | Graphics & Text | Print | Product List | Glossary Off
Versions: 1 2 3 4 5 6 7 8 9 10 11 12 13 14 15 16 17 18 19 20 21 22 23 24 25 26 27 28 29 30 31 32 33 34 35 36 37 38 39 40 41 42 43 44 45 46 47 48 49 50

568
ASUS43 KDMX 260208
RWRIA

WEATHER ROUNDUP FOR IOWA
NATIONAL WEATHER SERVICE DES MOINES IA
900 PM CDT THU AUG 25 2016

NOTE: "FAIR" INDICATES FEW OR NO CLOUDS BELOW 12,000 FEET WITH NO
SIGNIFICANT WEATHER AND/OR OBSTRUCTIONS TO VISIBILITY.

* - THESE STATIONS ARE NOT NWS STATIONS...THUS NOT UNDER NWS
QUALITY CONTROL.  THEY ALSO DO NOT REPORT WEATHER SUCH
AS PRECIPITATION OR FOG.

IAZ001>003-012>014-020>022-031>034-043>046-260300-
   NORTHWEST IOWA

CITY           SKY/WX    TMP DP  RH WIND       PRES   REMARKS
CARROLL *      CLEAR     64  61  88 NW5       30.14R
CHEROKEE *     CLEAR     65  61  86 CALM      30.14R
DENISON *      CLEAR     64  61  88 CALM      30.13R
LE MARS *      CLEAR     64  61  88 CALM      30.15R
ORANGE CITY *  CLEAR     64  59  82 CALM      30.14R
SHELDON *      DRIZZLE   61  59  94 CALM      30.13R
SIOUX CITY     CLEAR     66  57  72 N3        30.14R
SPENCER        CLEAR     63  58  83 NW5       30.14R
STORM LAKE *   CLEAR     64  59  82 W6        30.15R
$$

IAZ055>058-069>071-079>083-090>094-260300-
   SOUTHWEST IOWA

CITY           SKY/WX    TMP DP  RH WIND       PRES   REMARKS
ATLANTIC *     CLOUDY    66  64  94 N3        30.13R
AUDUBON *      CLEAR     64  61  88 CALM      30.15R
CLARINDA *       N/A     64  64 100 MISG      30.15R
COUNCIL BLFS * PTCLDY    66  63  88 N5        30.14R
CRESTON *      PTCLDY    66  63  88 NE6       30.15R
HARLAN  *      CLEAR     64  63  94 N6        30.17R
LAMONI         CLOUDY    66  64  93 N5        30.12R
RED OAK *      CLOUDY    66  63  88 CALM      30.13R
SHENANDOAH *   CLEAR     66 N/A N/A CALM      30.13R
$$

IAZ047>049-059>061-072>074-084-260300-
   CENTRAL IOWA

CITY           SKY/WX    TMP DP  RH WIND       PRES   REMARKS
AMES           CLEAR     64  64 100 SW3       30.11R
ANKENY *         N/A    N/A N/A N/A MISG        N/A
BOONE *          N/A     68  63  83 CALM      30.11R
CHARITON *       N/A     68  64  88 MISG      30.12R
DES MOINES     PTCLDY    72  61  68 N3        30.11R
GRINNELL*      PTCLDY    65  62  91 CALM      30.12R
KNOXVILLE *    CLOUDY    68  64  88 CALM      30.10R
MARSHALLTOWN   CLEAR     67  64  90 W3        30.10S
NEWTON *       CLOUDY    66  64  94 CALM      30.11R
PELLA *        PTCLDY    66  64  94 CALM      30.12R
PERRY *          N/A     65  65  99 CALM      30.12R
$$

IAZ004>006-015-016-023>025-035-036-260300-
   NORTH CENTRAL IOWA

CITY           SKY/WX    TMP DP  RH WIND       PRES   REMARKS
ALGONA *       CLEAR     66  61  82 NW6       30.13R
ESTHERVILLE    CLEAR     59  59 100 W6        30.13R
FORT DODGE *   CLEAR     64  57  77 CALM      30.13R
MASON CITY     CLEAR     63  60  90 NW3       30.13R
FOREST CITY *    N/A    N/A N/A N/A MISG        N/A
WEBSTER CITY * CLEAR     64  63  94 NW6       30.11R
IOWA FALLS *     N/A     66  62  87 SW6       30.13R
$$

IAZ007>011-017>019-026>030-037>042-050>054-066-260300-
   NORTHEAST IOWA

CITY           SKY/WX    TMP DP  RH WIND       PRES   REMARKS
CEDAR RAPIDS   CLOUDY    67  66  97 NW5       30.10R
CHARLES CITY * CLEAR     64  64 100 W3        30.11R
CLINTON *      PTCLDY    70  66  87 NW6       30.10R
DECORAH *      CLEAR     66  61  82 CALM      30.10R
DUBUQUE        CLOUDY    68  64  87 W3        30.10R
MONTICELLO *   CLEAR     64  63  94 CALM      30.09R
OELWEIN *      CLEAR     66  63  88 W3        30.11R
WATERLOO       CLEAR     67  61  81 CALM      30.09R
$$

IAZ064-065-067-068-078-260300-
   EAST CENTRAL IOWA

CITY           SKY/WX    TMP DP  RH WIND       PRES   REMARKS
DAVENPORT      CLOUDY    68  65  90 NW6       30.09R
IOWA CITY      CLOUDY    73  64  73 N3        30.11R
MT. PLEASANT * PTCLDY    69  68  96 N3        30.10R
MUSCATINE *    CLEAR     70  66  88 CALM      30.09R
QUAD CITIES    CLOUDY    69  65  86 W3        30.08
$$

IAZ062-063-075>077-085>089-095>099-260300-
   SOUTHEAST IOWA

CITY           SKY/WX    TMP DP  RH WIND       PRES   REMARKS
BURLINGTON     CLEAR     70  66  87 N7        30.08R
FAIRFIELD *    CLOUDY    70  66  88 N5        30.10R
FORT MADISON * PTCLDY    70  66  88 CALM      30.10R
KEOKUK *       PTCLDY    72  66  83 NE3       30.07S
OSKALOOSA *      N/A     67  65  93 N3        30.11R
OTTUMWA        CLOUDY    68  64  87 N7        30.11R
WASHINGTON *   CLOUDY    70  66  88 N6        30.11R
$$

ABBREVIATIONS USED IN REMARKS
   TC - TEMPERATURES IN CELSIUS
  WCI - WIND CHILL INDEX
   HX - HEAT INDEX
  VSB - VISIBILITY
$$





USA.gov is the U.S. government's official web portal to all federal, state and local government web resources and services.